Simultaneous Nadir Overpasses (SNOs) Predictions

Prediction of SNOs between GOES-17 and NOAA-20 Satellite Orbit:

Table of predicted SNOs for the next 14.0 days since TLE Epoch: 2/7/2020
Index Date Time (GOES-17) GOES-17 Lat,Lon NOAA-20 Lat,Lon Distance(km) Time Diff (sec)
1 02/08/2020 22:40:28 -0.05,-137.22 -0.47,-139.11 215.62 80
2 02/09/2020 22:24:24 -0.05,-137.22 0.52,-134.57 300.60 80
3 02/11/2020 10:46:13 0.05,-137.22 0.63,-139.85 299.79 80
4 02/12/2020 10:24:49 0.05,-137.21 -0.36,-135.32 216.03 80
5 02/13/2020 22:46:46 -0.05,-137.20 -0.81,-140.62 389.92 80
6 02/14/2020 22:30:42 -0.05,-137.19 0.18,-136.09 125.72 80
7 02/16/2020 10:52:31 0.06,-137.19 0.97,-141.36 475.49 80
8 02/17/2020 10:31:06 0.06,-137.18 -0.02,-136.83 39.64 80
9 02/19/2020 22:34:19 -0.07,-137.14 -0.16,-137.60 52.63 80
10 02/20/2020 22:18:15 -0.07,-137.12 0.83,-133.07 462.21 80




NCC Satellite Simultaneous Nadir Overpasses (SNOs) Prediction Service
